Time,TemperatureF,DewpointF,PressureIn,WindDirection,WindDirectionDegrees,WindSpeedMPH,WindSpeedGustMPH,Humidity,HourlyPrecipIn,Conditions,Clouds,dailyrainin,SolarRadiationWatts/m^2,SoftwareType,DateUTC
2013-01-15 00:00:00,10.7,7.1,30.44,SW,225,0.0,0.0,85,0.00,CLR,,0.00,0.0,WeatherDisplay:10.37,2013-01-15 06:00:00,
2013-01-15 00:05:00,10.5,6.9,30.44,SW,225,0.0,0.0,85,0.00,CLR,,0.00,0.0,WeatherDisplay:10.37,2013-01-15 06:05:00,
2013-01-15 00:10:00,10.4,6.8,30.44,SW,225,0.0,0.0,85,0.00,CLR,,0.00,0.0,WeatherDisplay:10.37,2013-01-15 06:10:00,
2013-01-15 00:15:00,10.4,6.8,30.44,SW,225,0.0,0.0,85,0.00,CLR,,0.00,0.0,WeatherDisplay:10.37,2013-01-15 06:15:00,
2013-01-15 00:20:00,10.5,7.1,30.44,SW,225,0.0,0.0,86,0.00,CLR,,0.00,0.0,WeatherDisplay:10.37,2013-01-15 06:20:00,
2013-01-15 00:25:00,10.5,7.1,30.44,SW,225,0.0,0.0,86,0.00,CLR,,0.00,0.0,WeatherDisplay:10.37,2013-01-15 06:25:00,
2013-01-15 00:30:00,10.5,7.1,30.44,SW,225,0.0,0.0,86,0.00,CLR,,0.00,0.0,WeatherDisplay:10.37,2013-01-15 06:30:00,
2013-01-15 00:35:00,10.4,7.0,30.44,SW,225,0.0,0.0,86,0.00,CLR,,0.00,0.0,WeatherDisplay:10.37,2013-01-15 06:35:00,
2013-01-15 00:40:00,10.4,7.0,30.44,SW,225,0.0,0.0,86,0.00,CLR,,0.00,0.0,WeatherDisplay:10.37,2013-01-15 06:40:00,
2013-01-15 00:45:00,10.2,6.8,30.44,SW,225,0.0,0.0,86,0.00,CLR,,0.00,0.0,WeatherDisplay:10.37,2013-01-15 06:45:00,
2013-01-15 00:50:00,10.2,6.8,30.44,SW,225,0.0,0.0,86,0.00,CLR,,0.00,0.0,WeatherDisplay:10.37,2013-01-15 06:50:00,
2013-01-15 00:55:00,10.0,6.6,30.44,SW,225,0.0,0.0,86,0.00,CLR,,0.00,0.0,WeatherDisplay:10.37,2013-01-15 06:55:00,
2013-01-15 01:00:00,9.9,6.6,30.44,SW,225,0.0,0.0,86,0.00,CLR,,0.00,0.0,WeatherDisplay:10.37,2013-01-15 07:00:00,
2013-01-15 01:05:00,9.9,6.6,30.44,SW,225,0.0,0.0,86,0.00,CLR,,0.00,0.0,WeatherDisplay:10.37,2013-01-15 07:05:00,
2013-01-15 01:10:00,9.7,6.4,30.44,SW,225,0.0,0.0,86,0.00,CLR,,0.00,0.0,WeatherDisplay:10.37,2013-01-15 07:10:00,
2013-01-15 01:15:00,9.5,6.2,30.43,SW,225,0.0,0.0,86,0.00,CLR,,0.00,0.0,WeatherDisplay:10.37,2013-01-15 07:15:00,
2013-01-15 01:20:00,9.5,6.2,30.43,SW,225,0.0,0.0,86,0.00,CLR,,0.00,0.0,WeatherDisplay:10.37,2013-01-15 07:20:00,
2013-01-15 01:25:00,9.3,6.0,30.43,SW,225,0.0,0.0,86,0.00,CLR,,0.00,0.0,WeatherDisplay:10.37,2013-01-15 07:25:00,
2013-01-15 01:30:00,9.2,5.9,30.42,SW,225,0.0,0.0,86,0.00,CLR,,0.00,0.0,WeatherDisplay:10.37,2013-01-15 07:30:00,
2013-01-15 01:35:00,9.0,5.7,30.42,SW,225,0.0,0.0,86,0.00,CLR,,0.00,0.0,WeatherDisplay:10.37,2013-01-15 07:35:00,
2013-01-15 01:40:00,8.6,5.0,30.42,SW,225,0.0,0.0,85,0.00,CLR,,0.00,0.0,WeatherDisplay:10.37,2013-01-15 07:40:00,
2013-01-15 01:45:00,8.3,4.7,30.43,SW,225,0.0,0.0,85,0.00,CLR,,0.00,0.0,WeatherDisplay:10.37,2013-01-15 07:45:00,
2013-01-15 01:50:00,8.1,4.5,30.43,SW,225,0.0,0.0,85,0.00,CLR,,0.00,0.0,WeatherDisplay:10.37,2013-01-15 07:50:00,
2013-01-15 01:55:00,8.3,5.0,30.43,SW,225,0.0,0.0,86,0.00,CLR,,0.00,0.0,WeatherDisplay:10.37,2013-01-15 07:55:00,
2013-01-15 02:00:00,8.4,5.1,30.43,SW,225,0.0,0.0,86,0.00,CLR,,0.00,0.0,WeatherDisplay:10.37,2013-01-15 08:00:00,
2013-01-15 02:05:00,9.0,5.7,30.43,SW,225,0.0,0.0,86,0.00,CLR,,0.00,0.0,WeatherDisplay:10.37,2013-01-15 08:05:00,
2013-01-15 02:10:00,9.2,5.9,30.43,SW,225,0.0,0.0,86,0.00,CLR,,0.00,0.0,WeatherDisplay:10.37,2013-01-15 08:10:00,
2013-01-15 02:15:00,9.3,6.0,30.43,SW,225,0.0,0.0,86,0.00,CLR,,0.00,0.0,WeatherDisplay:10.37,2013-01-15 08:15:00,
2013-01-15 02:20:00,9.3,6.0,30.43,SW,225,0.0,0.0,86,0.00,CLR,,0.00,0.0,WeatherDisplay:10.37,2013-01-15 08:20:00,
2013-01-15 02:25:00,9.5,6.4,30.43,SW,225,0.3,1.2,87,0.00,CLR,,0.00,0.0,WeatherDisplay:10.37,2013-01-15 08:25:00,
2013-01-15 02:30:00,9.5,6.2,30.44,SW,225,0.0,0.0,86,0.00,CLR,,0.00,0.0,WeatherDisplay:10.37,2013-01-15 08:30:00,
2013-01-15 02:35:00,9.5,6.2,30.44,SW,225,0.0,0.0,86,0.00,CLR,,0.00,0.0,WeatherDisplay:10.37,2013-01-15 08:35:00,
2013-01-15 02:40:00,9.3,6.0,30.44,SW,225,0.0,0.0,86,0.00,CLR,,0.00,0.0,WeatherDisplay:10.37,2013-01-15 08:40:00,
2013-01-15 02:45:00,9.3,6.2,30.43,SW,225,0.0,0.0,87,0.00,CLR,,0.00,0.0,WeatherDisplay:10.37,2013-01-15 08:45:00,
2013-01-15 02:50:00,9.3,6.2,30.43,SW,225,0.0,0.0,87,0.00,CLR,,0.00,0.0,WeatherDisplay:10.37,2013-01-15 08:50:00,
2013-01-15 02:55:00,9.3,6.0,30.43,SW,225,0.0,0.0,86,0.00,CLR,,0.00,0.0,WeatherDisplay:10.37,2013-01-15 08:55:00,
2013-01-15 03:00:00,9.2,5.9,30.43,SW,225,0.0,0.0,86,0.00,CLR,,0.00,0.0,WeatherDisplay:10.37,2013-01-15 09:00:00,
2013-01-15 03:05:00,9.2,5.9,30.43,SW,225,0.0,0.0,86,0.00,CLR,,0.00,0.0,WeatherDisplay:10.37,2013-01-15 09:05:00,
2013-01-15 03:10:00,9.0,5.7,30.43,SW,225,0.0,0.0,86,0.00,CLR,,0.00,0.0,WeatherDisplay:10.37,2013-01-15 09:10:00,
2013-01-15 03:15:00,9.0,5.7,30.42,SW,225,0.0,0.0,86,0.00,CLR,,0.00,0.0,WeatherDisplay:10.37,2013-01-15 09:15:00,
2013-01-15 03:20:00,9.2,6.1,30.42,SW,225,0.0,0.0,87,0.00,CLR,,0.00,0.0,WeatherDisplay:10.37,2013-01-15 09:20:00,
2013-01-15 03:25:00,9.3,6.2,30.42,SW,225,0.0,0.0,87,0.00,CLR,,0.00,0.0,WeatherDisplay:10.37,2013-01-15 09:25:00,
2013-01-15 03:30:00,9.3,6.2,30.41,SW,225,0.0,0.0,87,0.00,CLR,,0.00,0.0,WeatherDisplay:10.37,2013-01-15 09:30:00,
2013-01-15 03:35:00,9.3,6.2,30.41,SW,225,0.0,0.0,87,0.00,CLR,,0.00,0.0,WeatherDisplay:10.37,2013-01-15 09:35:00,
2013-01-15 03:40:00,9.3,6.2,30.41,SW,225,0.0,0.0,87,0.00,CLR,,0.00,0.0,WeatherDisplay:10.37,2013-01-15 09:40:00,
2013-01-15 03:45:00,9.2,5.9,30.41,SW,225,0.0,0.0,86,0.00,CLR,,0.00,0.0,WeatherDisplay:10.37,2013-01-15 09:45:00,
2013-01-15 03:50:00,9.2,5.9,30.41,SW,225,0.0,0.0,86,0.00,CLR,,0.00,0.0,WeatherDisplay:10.37,2013-01-15 09:50:00,
2013-01-15 03:55:00,9.2,6.1,30.41,SW,225,0.0,0.0,87,0.00,CLR,,0.00,0.0,WeatherDisplay:10.37,2013-01-15 09:55:00,
2013-01-15 04:00:00,9.2,6.1,30.41,SW,225,0.0,0.0,87,0.00,CLR,,0.00,0.0,WeatherDisplay:10.37,2013-01-15 10:00:00,
2013-01-15 04:05:00,9.2,6.1,30.41,SW,224,0.0,0.0,87,0.00,CLR,,0.00,0.0,WeatherDisplay:10.37,2013-01-15 10:05:00,
2013-01-15 04:10:00,9.2,6.1,30.41,SW,225,0.0,0.0,87,0.00,CLR,,0.00,0.0,WeatherDisplay:10.37,2013-01-15 10:10:00,
2013-01-15 04:15:00,9.2,5.9,30.40,SW,225,0.0,0.0,86,0.00,CLR,,0.00,0.0,WeatherDisplay:10.37,2013-01-15 10:15:00,
2013-01-15 04:20:00,9.2,5.9,30.40,SW,224,0.0,0.0,86,0.00,CLR,,0.00,0.0,WeatherDisplay:10.37,2013-01-15 10:20:00,
2013-01-15 04:25:00,8.8,5.5,30.40,SW,225,0.0,0.0,86,0.00,CLR,,0.00,0.0,WeatherDisplay:10.37,2013-01-15 10:25:00,
2013-01-15 04:30:00,8.6,5.3,30.40,SW,224,0.0,0.0,86,0.00,CLR,,0.00,0.0,WeatherDisplay:10.37,2013-01-15 10:30:00,
2013-01-15 04:35:00,8.6,5.3,30.40,SW,224,0.0,0.0,86,0.00,CLR,,0.00,0.0,WeatherDisplay:10.37,2013-01-15 10:35:00,
2013-01-15 04:40:00,8.6,5.3,30.40,SW,224,0.0,0.0,86,0.00,CLR,,0.00,0.0,WeatherDisplay:10.37,2013-01-15 10:40:00,
2013-01-15 04:45:00,8.4,5.1,30.40,SW,224,0.0,0.0,86,0.00,CLR,,0.00,0.0,WeatherDisplay:10.37,2013-01-15 10:45:00,
2013-01-15 04:50:00,8.6,5.3,30.40,SW,224,0.0,0.0,86,0.00,CLR,,0.00,0.0,WeatherDisplay:10.37,2013-01-15 10:50:00,
2013-01-15 04:55:00,8.6,5.3,30.40,SW,224,0.0,0.0,86,0.00,CLR,,0.00,0.0,WeatherDisplay:10.37,2013-01-15 10:55:00,
2013-01-15 05:00:00,8.6,5.3,30.39,SW,224,0.0,0.0,86,0.00,CLR,,0.00,0.0,WeatherDisplay:10.37,2013-01-15 11:00:00,
2013-01-15 05:05:00,8.6,5.3,30.39,SW,224,0.0,0.0,86,0.00,CLR,,0.00,0.0,WeatherDisplay:10.37,2013-01-15 11:05:00,
2013-01-15 05:10:00,8.6,5.3,30.39,SW,224,0.0,0.0,86,0.00,CLR,,0.00,0.0,WeatherDisplay:10.37,2013-01-15 11:10:00,
2013-01-15 05:15:00,8.6,5.3,30.38,SW,224,0.0,0.0,86,0.00,CLR,,0.00,0.0,WeatherDisplay:10.37,2013-01-15 11:15:00,
2013-01-15 05:20:00,9.0,5.9,30.38,SW,224,0.0,0.0,87,0.00,CLR,,0.00,0.0,WeatherDisplay:10.37,2013-01-15 11:20:00,
2013-01-15 05:25:00,9.7,6.6,30.38,SW,224,0.0,0.0,87,0.00,CLR,,0.00,0.0,WeatherDisplay:10.37,2013-01-15 11:25:00,
2013-01-15 05:30:00,10.2,7.1,30.38,SW,224,0.0,0.0,87,0.00,CLR,,0.00,0.0,WeatherDisplay:10.37,2013-01-15 11:30:00,
2013-01-15 05:35:00,10.7,7.6,30.38,SW,224,0.0,0.0,87,0.00,CLR,,0.00,0.0,WeatherDisplay:10.37,2013-01-15 11:35:00,
2013-01-15 05:40:00,11.1,8.0,30.38,SW,224,0.0,0.0,87,0.00,CLR,,0.00,0.0,WeatherDisplay:10.37,2013-01-15 11:40:00,
2013-01-15 05:45:00,11.4,8.3,30.38,SW,224,0.0,0.0,87,0.00,CLR,,0.00,0.0,WeatherDisplay:10.37,2013-01-15 11:45:00,
2013-01-15 05:50:00,11.6,8.5,30.38,SW,224,0.0,0.0,87,0.00,CLR,,0.00,0.0,WeatherDisplay:10.37,2013-01-15 11:50:00,
2013-01-15 05:55:00,11.9,8.8,30.38,SW,224,0.0,0.0,87,0.00,CLR,,0.00,0.0,WeatherDisplay:10.37,2013-01-15 11:55:00,
2013-01-15 06:00:00,12.4,9.3,30.38,SW,224,0.0,0.0,87,0.00,CLR,,0.00,0.0,WeatherDisplay:10.37,2013-01-15 12:00:00,
2013-01-15 06:05:00,12.8,9.7,30.38,SW,224,0.5,1.2,87,0.00,CLR,,0.00,0.0,WeatherDisplay:10.37,2013-01-15 12:05:00,
2013-01-15 06:10:00,13.5,10.4,30.38,SSW,209,2.1,4.8,87,0.00,CLR,,0.00,0.0,WeatherDisplay:10.37,2013-01-15 12:10:00,
2013-01-15 06:15:00,14.0,10.6,30.39,SSW,209,3.6,4.8,86,0.00,CLR,,0.00,0.0,WeatherDisplay:10.37,2013-01-15 12:15:00,
2013-01-15 06:31:00,14.1,10.2,30.39,SSW,209,0.0,3.6,84,0.00,CLR,,0.00,0.0,WeatherDisplay:10.37,2013-01-15 12:31:00,
2013-01-15 06:36:00,14.1,10.2,30.39,SSW,209,0.0,0.0,84,0.00,CLR,,0.00,0.0,WeatherDisplay:10.37,2013-01-15 12:36:00,
2013-01-15 06:41:00,14.3,10.4,30.39,SSW,209,0.0,0.0,84,0.00,CLR,,0.00,0.0,WeatherDisplay:10.37,2013-01-15 12:41:00,
2013-01-15 06:46:00,14.3,10.4,30.39,SSW,209,0.0,0.0,84,0.00,CLR,,0.00,0.0,WeatherDisplay:10.37,2013-01-15 12:46:00,
2013-01-15 06:51:00,14.6,10.4,30.39,SSW,209,0.0,0.0,83,0.00,CLR,,0.00,0.0,WeatherDisplay:10.37,2013-01-15 12:51:00,
2013-01-15 06:56:00,14.6,10.4,30.39,SSW,209,3.6,6.0,83,0.00,CLR,,0.00,0.0,WeatherDisplay:10.37,2013-01-15 12:56:00,
2013-01-15 07:01:00,14.8,10.3,30.39,SSW,209,1.8,3.6,82,0.00,CLR,,0.00,0.0,WeatherDisplay:10.37,2013-01-15 13:01:00,
2013-01-15 07:06:00,14.8,10.0,30.39,SSW,209,0.0,0.0,81,0.00,CLR,,0.00,0.0,WeatherDisplay:10.37,2013-01-15 13:06:00,
2013-01-15 07:11:00,14.8,10.0,30.39,SSW,209,0.1,1.2,81,0.00,CLR,,0.00,0.0,WeatherDisplay:10.37,2013-01-15 13:11:00,
2013-01-15 07:16:00,14.8,10.0,30.39,SSW,209,0.4,4.6,81,0.00,CLR,,0.00,0.0,WeatherDisplay:10.37,2013-01-15 13:16:00,
2013-01-15 07:21:00,14.8,9.7,30.39,SSW,209,1.6,4.6,80,0.00,CLR,,0.00,0.0,WeatherDisplay:10.37,2013-01-15 13:21:00,
2013-01-15 07:26:00,14.8,9.7,30.39,SSW,209,0.0,0.0,80,0.00,CLR,,0.00,0.0,WeatherDisplay:10.37,2013-01-15 13:26:00,
2013-01-15 07:31:00,14.8,9.7,30.39,SSW,209,0.0,0.0,80,0.00,CLR,,0.00,5.0,WeatherDisplay:10.37,2013-01-15 13:31:00,
2013-01-15 07:36:00,14.8,9.7,30.39,SSW,209,2.3,3.6,80,0.00,CLR,,0.00,7.0,WeatherDisplay:10.37,2013-01-15 13:36:00,
2013-01-15 07:41:00,14.8,9.7,30.39,SSW,209,3.6,3.6,80,0.00,CLR,,0.00,9.0,WeatherDisplay:10.37,2013-01-15 13:41:00,
2013-01-15 07:46:00,14.8,9.7,30.39,SSW,209,4.1,4.8,80,0.00,CLR,,0.00,12.0,WeatherDisplay:10.37,2013-01-15 13:46:00,
2013-01-15 07:51:00,14.9,9.8,30.39,SSW,209,3.5,4.8,80,0.00,CLR,,0.00,14.0,WeatherDisplay:10.37,2013-01-15 13:51:00,
2013-01-15 07:56:00,15.1,10.0,30.39,SSW,209,4.9,6.0,80,0.00,CLR,,0.00,18.0,WeatherDisplay:10.37,2013-01-15 13:56:00,
2013-01-15 08:01:00,15.1,9.8,30.39,SSW,209,3.6,6.0,79,0.00,CLR,,0.00,21.0,WeatherDisplay:10.37,2013-01-15 14:01:00,
2013-01-15 08:06:00,15.2,9.9,30.39,SSW,209,3.9,4.8,79,0.00,CLR,,0.00,23.0,WeatherDisplay:10.37,2013-01-15 14:06:00,
2013-01-15 08:11:00,15.4,10.1,30.39,SSW,209,5.1,5.1,79,0.00,CLR,,0.00,26.0,WeatherDisplay:10.37,2013-01-15 14:11:00,
2013-01-15 08:16:00,15.4,10.1,30.38,SSW,209,3.3,5.8,79,0.00,CLR,,0.00,32.0,WeatherDisplay:10.37,2013-01-15 14:16:00,
2013-01-15 08:21:00,15.6,10.2,30.38,South,190,3.5,4.8,79,0.00,CLR,,0.00,98.0,WeatherDisplay:10.37,2013-01-15 14:21:00,
2013-01-15 08:26:00,15.7,10.1,30.38,SSW,197,4.5,6.0,78,0.00,CLR,,0.00,83.0,WeatherDisplay:10.37,2013-01-15 14:26:00,
2013-01-15 08:31:00,16.1,10.4,30.38,South,189,3.1,6.9,78,0.00,CLR,,0.00,46.0,WeatherDisplay:10.37,2013-01-15 14:31:00,
2013-01-15 08:36:00,16.2,10.3,30.38,South,184,3.2,4.8,77,0.00,CLR,,0.00,84.0,WeatherDisplay:10.37,2013-01-15 14:36:00,
2013-01-15 08:41:00,16.5,10.5,30.38,SSW,202,4.8,6.9,77,0.00,CLR,,0.00,42.0,WeatherDisplay:10.37,2013-01-15 14:41:00,
2013-01-15 08:46:00,16.5,10.3,30.38,SSW,202,8.0,9.6,76,0.00,CLR,,0.00,72.0,WeatherDisplay:10.37,2013-01-15 14:46:00,
2013-01-15 08:51:00,16.9,10.6,30.38,SSW,202,4.7,7.2,76,0.00,CLR,,0.00,134.0,WeatherDisplay:10.37,2013-01-15 14:51:00,
2013-01-15 08:56:00,17.0,10.7,30.38,South,190,3.9,4.8,76,0.00,CLR,,0.00,113.0,WeatherDisplay:10.37,2013-01-15 14:56:00,
2013-01-15 09:01:00,17.3,11.0,30.38,South,171,3.6,4.8,76,0.00,CLR,,0.00,79.0,WeatherDisplay:10.37,2013-01-15 15:01:00,
2013-01-15 09:06:00,17.7,11.1,30.38,SSW,198,5.5,7.2,75,0.00,CLR,,0.00,76.0,WeatherDisplay:10.37,2013-01-15 15:06:00,
2013-01-15 09:11:00,18.1,11.2,30.38,SSW,207,7.6,9.6,74,0.00,CLR,,0.00,123.0,WeatherDisplay:10.37,2013-01-15 15:11:00,
2013-01-15 09:16:00,18.4,11.5,30.38,South,182,7.0,9.6,74,0.00,CLR,,0.00,107.0,WeatherDisplay:10.37,2013-01-15 15:16:00,
2013-01-15 09:21:00,18.8,11.9,30.38,South,180,6.7,9.2,74,0.00,CLR,,0.00,142.0,WeatherDisplay:10.37,2013-01-15 15:21:00,
2013-01-15 09:26:00,19.1,11.9,30.38,SSW,194,5.6,9.6,73,0.00,CLR,,0.00,148.0,WeatherDisplay:10.37,2013-01-15 15:26:00,
2013-01-15 09:31:00,19.2,11.6,30.39,South,173,8.3,9.6,72,0.00,CLR,,0.00,181.0,WeatherDisplay:10.37,2013-01-15 15:31:00,
2013-01-15 09:36:00,19.5,11.6,30.39,South,169,8.6,12.0,71,0.00,CLR,,0.00,148.0,WeatherDisplay:10.37,2013-01-15 15:36:00,
2013-01-15 09:41:00,19.9,11.7,30.39,SSW,200,11.9,13.2,70,0.00,CLR,,0.00,197.0,WeatherDisplay:10.37,2013-01-15 15:41:00,
2013-01-15 09:46:00,20.2,12.0,30.39,SSW,209,7.5,10.8,70,0.00,CLR,,0.00,148.0,WeatherDisplay:10.37,2013-01-15 15:46:00,
2013-01-15 09:51:00,20.6,12.4,30.39,SSW,207,10.7,13.2,70,0.00,CLR,,0.00,185.0,WeatherDisplay:10.37,2013-01-15 15:51:00,
2013-01-15 09:56:00,20.8,11.9,30.39,SSW,193,11.0,13.2,68,0.00,CLR,,0.00,271.0,WeatherDisplay:10.37,2013-01-15 15:56:00,
2013-01-15 10:01:00,21.0,11.8,30.40,SSW,204,9.8,13.2,67,0.00,CLR,,0.00,195.0,WeatherDisplay:10.37,2013-01-15 16:01:00,
2013-01-15 10:06:00,21.1,11.8,30.40,South,180,12.1,13.2,67,0.00,CLR,,0.00,301.0,WeatherDisplay:10.37,2013-01-15 16:06:00,
2013-01-15 10:11:00,21.4,12.1,30.40,SSW,211,12.3,15.0,67,0.00,CLR,,0.00,267.0,WeatherDisplay:10.37,2013-01-15 16:11:00,
2013-01-15 10:16:00,21.8,12.5,30.39,SSW,202,9.7,10.8,67,0.00,CLR,,0.00,250.0,WeatherDisplay:10.37,2013-01-15 16:16:00,
2013-01-15 10:21:00,22.2,12.9,30.39,SSW,205,10.1,13.2,67,0.00,CLR,,0.00,197.0,WeatherDisplay:10.37,2013-01-15 16:21:00,
2013-01-15 10:26:00,22.5,13.2,30.39,South,171,8.1,9.6,67,0.00,CLR,,0.00,292.0,WeatherDisplay:10.37,2013-01-15 16:26:00,
2013-01-15 10:31:00,22.5,12.5,30.38,SSW,202,10.6,13.2,65,0.00,CLR,,0.00,369.0,WeatherDisplay:10.37,2013-01-15 16:31:00,
2013-01-15 10:36:00,22.7,12.3,30.38,SSW,212,12.1,13.2,64,0.00,CLR,,0.00,357.0,WeatherDisplay:10.37,2013-01-15 16:36:00,
2013-01-15 10:41:00,23.0,13.0,30.38,SSW,198,12.5,18.0,65,0.00,CLR,,0.00,399.0,WeatherDisplay:10.37,2013-01-15 16:41:00,
2013-01-15 10:46:00,23.5,13.1,30.37,SSW,194,10.5,17.3,64,0.00,CLR,,0.00,408.0,WeatherDisplay:10.37,2013-01-15 16:46:00,
2013-01-15 10:51:00,24.2,13.8,30.37,SSW,202,9.5,13.2,64,0.00,CLR,,0.00,413.0,WeatherDisplay:10.37,2013-01-15 16:51:00,
2013-01-15 10:56:00,24.2,13.4,30.37,SSW,211,9.1,13.2,63,0.00,CLR,,0.00,418.0,WeatherDisplay:10.37,2013-01-15 16:56:00,
2013-01-15 11:01:00,24.7,13.1,30.36,South,182,10.0,15.0,61,0.00,CLR,,0.00,424.0,WeatherDisplay:10.37,2013-01-15 17:01:00,
2013-01-15 11:06:00,25.0,13.1,30.36,SSW,213,14.0,15.0,60,0.00,CLR,,0.00,429.0,WeatherDisplay:10.37,2013-01-15 17:06:00,
2013-01-15 11:11:00,25.4,13.4,30.36,SSW,200,11.9,15.0,60,0.00,CLR,,0.00,434.0,WeatherDisplay:10.37,2013-01-15 17:11:00,
2013-01-15 11:16:00,25.6,13.2,30.35,South,172,12.4,15.0,59,0.00,CLR,,0.00,439.0,WeatherDisplay:10.37,2013-01-15 17:16:00,
2013-01-15 11:21:00,25.6,13.2,30.35,SSW,210,12.3,17.3,59,0.00,CLR,,0.00,443.0,WeatherDisplay:10.37,2013-01-15 17:21:00,
2013-01-15 11:26:00,25.8,13.0,30.35,SSW,196,11.7,16.1,58,0.00,CLR,,0.00,445.0,WeatherDisplay:10.37,2013-01-15 17:26:00,
2013-01-15 11:31:00,26.1,13.3,30.34,SSW,203,10.6,12.0,58,0.00,CLR,,0.00,450.0,WeatherDisplay:10.37,2013-01-15 17:31:00,
2013-01-15 11:36:00,26.3,13.9,30.34,SSW,202,12.7,19.2,59,0.00,CLR,,0.00,450.0,WeatherDisplay:10.37,2013-01-15 17:36:00,
2013-01-15 11:41:00,26.6,13.8,30.34,SW,235,11.4,15.0,58,0.00,CLR,,0.00,455.0,WeatherDisplay:10.37,2013-01-15 17:41:00,
2013-01-15 11:46:00,26.6,13.8,30.33,SSW,204,12.1,13.2,58,0.00,CLR,,0.00,455.0,WeatherDisplay:10.37,2013-01-15 17:46:00,
2013-01-15 11:51:00,26.7,13.9,30.33,SSW,209,10.8,13.2,58,0.00,CLR,,0.00,454.0,WeatherDisplay:10.37,2013-01-15 17:51:00,
2013-01-15 11:56:00,26.7,13.5,30.33,SSW,205,11.7,16.1,57,0.00,CLR,,0.00,454.0,WeatherDisplay:10.37,2013-01-15 17:56:00,
2013-01-15 12:01:00,26.7,13.1,30.33,South,183,15.8,19.6,56,0.00,CLR,,0.00,454.0,WeatherDisplay:10.37,2013-01-15 18:01:00,
2013-01-15 12:06:00,27.0,13.8,30.33,SSW,209,11.0,12.0,57,0.00,CLR,,0.00,455.0,WeatherDisplay:10.37,2013-01-15 18:06:00,
2013-01-15 12:11:00,27.2,13.6,30.33,SSW,207,10.3,10.8,56,0.00,CLR,,0.00,454.0,WeatherDisplay:10.37,2013-01-15 18:11:00,
2013-01-15 12:16:00,27.5,14.2,30.33,SSW,207,8.8,10.8,57,0.00,CLR,,0.00,450.0,WeatherDisplay:10.37,2013-01-15 18:16:00,
2013-01-15 12:21:00,27.5,13.4,30.33,SW,224,14.4,20.7,55,0.00,CLR,,0.00,448.0,WeatherDisplay:10.37,2013-01-15 18:21:00,
2013-01-15 12:26:00,27.3,13.7,30.33,SSW,205,16.2,21.9,56,0.00,CLR,,0.00,446.0,WeatherDisplay:10.37,2013-01-15 18:26:00,
2013-01-15 12:31:00,27.5,13.8,30.33,South,184,8.6,12.0,56,0.00,CLR,,0.00,448.0,WeatherDisplay:10.37,2013-01-15 18:31:00,
2013-01-15 12:36:00,27.9,14.2,30.33,SW,217,10.4,15.0,56,0.00,CLR,,0.00,452.0,WeatherDisplay:10.37,2013-01-15 18:36:00,
2013-01-15 12:41:00,27.8,13.7,30.33,SSW,209,8.9,10.4,55,0.00,CLR,,0.00,446.0,WeatherDisplay:10.37,2013-01-15 18:41:00,
2013-01-15 12:46:00,27.8,14.1,30.32,SSW,207,9.8,16.1,56,0.00,CLR,,0.00,445.0,WeatherDisplay:10.37,2013-01-15 18:46:00,
2013-01-15 12:51:00,28.2,14.9,30.32,SW,222,11.1,14.4,57,0.00,CLR,,0.00,443.0,WeatherDisplay:10.37,2013-01-15 18:51:00,
2013-01-15 12:56:00,28.2,14.1,30.32,SSW,194,13.6,16.1,55,0.00,CLR,,0.00,438.0,WeatherDisplay:10.37,2013-01-15 18:56:00,
2013-01-15 13:01:00,28.2,13.2,30.31,SSW,200,11.5,18.0,53,0.00,CLR,,0.00,431.0,WeatherDisplay:10.37,2013-01-15 19:01:00,
2013-01-15 13:06:00,28.5,13.5,30.31,South,175,11.2,13.2,53,0.00,CLR,,0.00,431.0,WeatherDisplay:10.37,2013-01-15 19:06:00,
2013-01-15 13:11:00,28.7,13.7,30.31,SW,216,12.1,14.4,53,0.00,CLR,,0.00,427.0,WeatherDisplay:10.37,2013-01-15 19:11:00,
2013-01-15 13:16:00,28.7,13.7,30.30,SW,216,10.3,12.0,53,0.00,CLR,,0.00,422.0,WeatherDisplay:10.37,2013-01-15 19:16:00,
2013-01-15 13:21:00,28.5,13.5,30.30,SW,217,9.4,12.0,53,0.00,CLR,,0.00,415.0,WeatherDisplay:10.37,2013-01-15 19:21:00,
2013-01-15 13:26:00,28.7,13.7,30.30,SSW,201,9.9,15.6,53,0.00,CLR,,0.00,410.0,WeatherDisplay:10.37,2013-01-15 19:26:00,
2013-01-15 13:31:00,28.7,13.7,30.30,South,185,12.6,15.0,53,0.00,CLR,,0.00,406.0,WeatherDisplay:10.37,2013-01-15 19:31:00,
2013-01-15 13:36:00,28.8,13.8,30.30,South,190,13.0,15.0,53,0.00,CLR,,0.00,397.0,WeatherDisplay:10.37,2013-01-15 19:36:00,
2013-01-15 13:41:00,28.8,13.4,30.30,SSW,195,13.6,18.4,52,0.00,CLR,,0.00,388.0,WeatherDisplay:10.37,2013-01-15 19:41:00,
2013-01-15 13:46:00,29.1,14.1,30.29,South,188,12.6,15.0,53,0.00,CLR,,0.00,380.0,WeatherDisplay:10.37,2013-01-15 19:46:00,
2013-01-15 13:51:00,29.0,13.1,30.29,SSW,203,12.8,17.3,51,0.00,CLR,,0.00,374.0,WeatherDisplay:10.37,2013-01-15 19:51:00,
2013-01-15 13:56:00,29.3,14.3,30.29,SSW,213,6.9,10.4,53,0.00,CLR,,0.00,366.0,WeatherDisplay:10.37,2013-01-15 19:56:00,
2013-01-15 14:01:00,29.5,14.0,30.29,South,169,11.4,12.0,52,0.00,CLR,,0.00,355.0,WeatherDisplay:10.37,2013-01-15 20:01:00,
2013-01-15 14:06:00,29.1,13.6,30.29,SSW,200,11.0,16.1,52,0.00,CLR,,0.00,339.0,WeatherDisplay:10.37,2013-01-15 20:06:00,
2013-01-15 14:11:00,29.0,13.6,30.29,SSW,213,13.6,19.2,52,0.00,CLR,,0.00,341.0,WeatherDisplay:10.37,2013-01-15 20:11:00,
2013-01-15 14:16:00,29.4,13.5,30.28,SSW,211,15.7,19.2,51,0.00,CLR,,0.00,334.0,WeatherDisplay:10.37,2013-01-15 20:16:00,
2013-01-15 14:21:00,29.3,13.4,30.28,South,183,10.8,13.2,51,0.00,CLR,,0.00,325.0,WeatherDisplay:10.37,2013-01-15 20:21:00,
2013-01-15 14:26:00,29.5,14.0,30.28,SW,219,10.4,10.8,52,0.00,CLR,,0.00,315.0,WeatherDisplay:10.37,2013-01-15 20:26:00,
2013-01-15 14:31:00,29.5,13.6,30.29,WSW,238,10.8,15.0,51,0.00,CLR,,0.00,311.0,WeatherDisplay:10.37,2013-01-15 20:31:00,
2013-01-15 14:36:00,29.8,14.7,30.29,South,179,7.7,9.6,53,0.00,CLR,,0.00,301.0,WeatherDisplay:10.37,2013-01-15 20:36:00,
2013-01-15 14:41:00,29.8,13.9,30.29,SSW,212,8.3,12.0,51,0.00,CLR,,0.00,279.0,WeatherDisplay:10.37,2013-01-15 20:41:00,
2013-01-15 14:46:00,29.5,13.1,30.28,SSW,196,12.0,17.3,50,0.00,CLR,,0.00,269.0,WeatherDisplay:10.37,2013-01-15 20:46:00,
2013-01-15 14:51:00,29.7,13.3,30.28,SSW,211,10.2,13.2,50,0.00,CLR,,0.00,257.0,WeatherDisplay:10.37,2013-01-15 20:51:00,
2013-01-15 14:56:00,29.8,13.9,30.28,SW,215,10.4,13.2,51,0.00,CLR,,0.00,246.0,WeatherDisplay:10.37,2013-01-15 20:56:00,
2013-01-15 15:01:00,29.8,13.9,30.28,South,179,10.1,12.0,51,0.00,CLR,,0.00,234.0,WeatherDisplay:10.37,2013-01-15 21:01:00,
2013-01-15 15:06:00,29.8,14.3,30.28,SSW,204,9.6,10.8,52,0.00,CLR,,0.00,225.0,WeatherDisplay:10.37,2013-01-15 21:06:00,
2013-01-15 15:11:00,29.8,13.9,30.28,SSW,210,7.2,9.2,51,0.00,CLR,,0.00,216.0,WeatherDisplay:10.37,2013-01-15 21:11:00,
2013-01-15 15:16:00,29.7,13.8,30.27,SSW,196,14.3,19.6,51,0.00,CLR,,0.00,197.0,WeatherDisplay:10.37,2013-01-15 21:16:00,
2013-01-15 15:21:00,29.8,14.3,30.27,SSW,192,7.2,9.6,52,0.00,CLR,,0.00,165.0,WeatherDisplay:10.37,2013-01-15 21:21:00,
2013-01-15 15:26:00,29.7,13.8,30.27,South,187,10.7,16.1,51,0.00,CLR,,0.00,121.0,WeatherDisplay:10.37,2013-01-15 21:26:00,
2013-01-15 15:31:00,29.8,13.9,30.26,SSW,206,12.3,17.3,51,0.00,CLR,,0.00,123.0,WeatherDisplay:10.37,2013-01-15 21:31:00,
2013-01-15 15:36:00,29.8,14.3,30.26,SW,217,10.0,12.0,52,0.00,CLR,,0.00,113.0,WeatherDisplay:10.37,2013-01-15 21:36:00,
2013-01-15 15:41:00,29.8,14.3,30.26,SSW,211,8.3,9.6,52,0.00,CLR,,0.00,128.0,WeatherDisplay:10.37,2013-01-15 21:41:00,
2013-01-15 15:46:00,29.7,13.8,30.26,SSW,194,7.4,12.7,51,0.00,CLR,,0.00,81.0,WeatherDisplay:10.37,2013-01-15 21:46:00,
2013-01-15 15:51:00,29.7,14.2,30.26,South,190,10.1,12.0,52,0.00,CLR,,0.00,58.0,WeatherDisplay:10.37,2013-01-15 21:51:00,
2013-01-15 15:56:00,29.5,14.0,30.26,South,188,9.9,12.0,52,0.00,CLR,,0.00,46.0,WeatherDisplay:10.37,2013-01-15 21:56:00,
2013-01-15 16:01:00,29.5,14.5,30.26,SSW,192,6.4,8.4,53,0.00,CLR,,0.00,33.0,WeatherDisplay:10.37,2013-01-15 22:01:00,
2013-01-15 16:06:00,29.4,14.4,30.26,South,191,10.0,10.8,53,0.00,CLR,,0.00,30.0,WeatherDisplay:10.37,2013-01-15 22:06:00,
2013-01-15 16:11:00,29.3,14.3,30.26,South,191,9.3,11.5,53,0.00,CLR,,0.00,32.0,WeatherDisplay:10.37,2013-01-15 22:11:00,
2013-01-15 16:16:00,29.1,14.1,30.25,South,186,8.6,12.0,53,0.00,CLR,,0.00,30.0,WeatherDisplay:10.37,2013-01-15 22:16:00,
2013-01-15 16:21:00,29.1,14.1,30.25,SSW,195,10.8,12.0,53,0.00,CLR,,0.00,23.0,WeatherDisplay:10.37,2013-01-15 22:21:00,
2013-01-15 16:26:00,29.0,14.0,30.25,SSW,198,6.3,11.5,53,0.00,CLR,,0.00,19.0,WeatherDisplay:10.37,2013-01-15 22:26:00,
2013-01-15 16:31:00,29.0,14.0,30.25,SSW,197,7.2,9.6,53,0.00,CLR,,0.00,16.0,WeatherDisplay:10.37,2013-01-15 22:31:00,
2013-01-15 16:36:00,28.7,13.7,30.25,South,191,7.3,9.6,53,0.00,CLR,,0.00,14.0,WeatherDisplay:10.37,2013-01-15 22:36:00,
2013-01-15 16:41:00,28.7,13.7,30.25,South,183,8.6,12.7,53,0.00,CLR,,0.00,9.0,WeatherDisplay:10.37,2013-01-15 22:41:00,
2013-01-15 16:46:00,28.5,13.5,30.25,SSW,200,11.8,15.6,53,0.00,CLR,,0.00,7.0,WeatherDisplay:10.37,2013-01-15 22:46:00,
2013-01-15 16:51:00,28.4,13.9,30.25,SW,224,7.4,10.8,54,0.00,CLR,,0.00,5.0,WeatherDisplay:10.37,2013-01-15 22:51:00,
2013-01-15 16:56:00,28.1,13.6,30.25,SSW,204,10.9,14.4,54,0.00,CLR,,0.00,0.0,WeatherDisplay:10.37,2013-01-15 22:56:00,
2013-01-15 17:01:00,28.1,14.0,30.24,South,191,8.7,12.0,55,0.00,CLR,,0.00,0.0,WeatherDisplay:10.37,2013-01-15 23:01:00,
2013-01-15 17:06:00,27.9,13.8,30.24,SSW,209,5.1,6.9,55,0.00,CLR,,0.00,0.0,WeatherDisplay:10.37,2013-01-15 23:06:00,
2013-01-15 17:11:00,27.8,14.1,30.24,SSW,204,4.4,9.2,56,0.00,CLR,,0.00,0.0,WeatherDisplay:10.37,2013-01-15 23:11:00,
2013-01-15 17:16:00,27.5,13.8,30.24,SSW,193,5.1,6.0,56,0.00,CLR,,0.00,0.0,WeatherDisplay:10.37,2013-01-15 23:16:00,
2013-01-15 17:21:00,27.3,14.1,30.24,South,189,6.4,7.2,57,0.00,CLR,,0.00,0.0,WeatherDisplay:10.37,2013-01-15 23:21:00,
2013-01-15 17:26:00,27.2,14.0,30.24,South,188,2.7,6.9,57,0.00,CLR,,0.00,0.0,WeatherDisplay:10.37,2013-01-15 23:26:00,
2013-01-15 17:31:00,27.0,13.8,30.23,SW,227,3.0,7.2,57,0.00,CLR,,0.00,0.0,WeatherDisplay:10.37,2013-01-15 23:31:00,
2013-01-15 17:36:00,27.0,13.8,30.23,South,191,6.1,8.4,57,0.00,CLR,,0.00,0.0,WeatherDisplay:10.37,2013-01-15 23:36:00,
2013-01-15 17:41:00,26.9,14.1,30.23,SSW,192,4.8,7.2,58,0.00,CLR,,0.00,0.0,WeatherDisplay:10.37,2013-01-15 23:41:00,
2013-01-15 17:46:00,26.7,13.9,30.23,South,191,0.0,3.5,58,0.00,CLR,,0.00,0.0,WeatherDisplay:10.37,2013-01-15 23:46:00,
2013-01-15 17:51:00,26.6,13.8,30.23,South,189,3.4,4.8,58,0.00,CLR,,0.00,0.0,WeatherDisplay:10.37,2013-01-15 23:51:00,
2013-01-15 17:56:00,26.4,14.0,30.23,South,183,2.6,6.0,59,0.00,CLR,,0.00,0.0,WeatherDisplay:10.37,2013-01-15 23:56:00,
2013-01-15 18:01:00,26.3,13.9,30.23,South,190,4.7,6.0,59,0.00,CLR,,0.00,0.0,WeatherDisplay:10.37,2013-01-16 00:01:00,
2013-01-15 18:06:00,26.3,13.9,30.23,SSW,194,7.2,10.8,59,0.00,CLR,,0.00,0.0,WeatherDisplay:10.37,2013-01-16 00:06:00,
2013-01-15 18:11:00,26.1,14.1,30.23,South,188,4.9,10.4,60,0.00,CLR,,0.00,0.0,WeatherDisplay:10.37,2013-01-16 00:11:00,
2013-01-15 18:16:00,26.0,14.0,30.22,South,182,3.7,4.8,60,0.00,CLR,,0.00,0.0,WeatherDisplay:10.37,2013-01-16 00:16:00,
2013-01-15 18:21:00,26.0,14.0,30.22,South,174,5.5,7.2,60,0.00,CLR,,0.00,0.0,WeatherDisplay:10.37,2013-01-16 00:21:00,
2013-01-15 18:26:00,26.0,13.6,30.22,South,185,6.6,9.6,59,0.00,CLR,,0.00,0.0,WeatherDisplay:10.37,2013-01-16 00:26:00,
2013-01-15 18:31:00,26.0,13.6,30.21,SSW,192,6.1,10.8,59,0.00,CLR,,0.00,0.0,WeatherDisplay:10.37,2013-01-16 00:31:00,
2013-01-15 18:36:00,26.0,13.6,30.21,SSW,204,0.3,3.6,59,0.00,CLR,,0.00,0.0,WeatherDisplay:10.37,2013-01-16 00:36:00,
2013-01-15 18:41:00,26.0,13.6,30.21,SW,214,1.3,4.6,59,0.00,CLR,,0.00,0.0,WeatherDisplay:10.37,2013-01-16 00:41:00,
2013-01-15 18:46:00,25.8,13.4,30.20,SSW,204,4.4,6.0,59,0.00,CLR,,0.00,0.0,WeatherDisplay:10.37,2013-01-16 00:46:00,
2013-01-15 18:51:00,25.8,13.4,30.20,SSW,205,4.4,8.4,59,0.00,CLR,,0.00,0.0,WeatherDisplay:10.37,2013-01-16 00:51:00,
2013-01-15 18:56:00,25.7,13.3,30.20,SSW,207,6.2,7.2,59,0.00,CLR,,0.00,0.0,WeatherDisplay:10.37,2013-01-16 00:56:00,
2013-01-15 19:01:00,25.6,13.6,30.20,SSW,211,4.4,7.2,60,0.00,CLR,,0.00,0.0,WeatherDisplay:10.37,2013-01-16 01:01:00,
2013-01-15 19:06:00,25.6,13.2,30.20,SSW,213,6.6,10.4,59,0.00,CLR,,0.00,0.0,WeatherDisplay:10.37,2013-01-16 01:06:00,
2013-01-15 19:11:00,25.6,13.2,30.20,SSW,199,7.1,8.4,59,0.00,CLR,,0.00,0.0,WeatherDisplay:10.37,2013-01-16 01:11:00,
2013-01-15 19:16:00,25.4,13.4,30.19,South,185,7.1,10.8,60,0.00,CLR,,0.00,0.0,WeatherDisplay:10.37,2013-01-16 01:16:00,
2013-01-15 19:21:00,25.3,13.3,30.19,South,182,8.2,12.0,60,0.00,CLR,,0.00,0.0,WeatherDisplay:10.37,2013-01-16 01:21:00,
2013-01-15 19:26:00,25.1,13.2,30.19,SSW,192,8.5,9.6,60,0.00,CLR,,0.00,0.0,WeatherDisplay:10.37,2013-01-16 01:26:00,
2013-01-15 19:31:00,25.1,13.2,30.18,SSW,200,7.6,9.6,60,0.00,CLR,,0.00,0.0,WeatherDisplay:10.37,2013-01-16 01:31:00,
2013-01-15 19:36:00,24.8,13.2,30.18,SSW,194,5.3,6.0,61,0.00,CLR,,0.00,0.0,WeatherDisplay:10.37,2013-01-16 01:36:00,
2013-01-15 19:41:00,24.8,13.2,30.18,South,184,6.9,12.0,61,0.00,CLR,,0.00,0.0,WeatherDisplay:10.37,2013-01-16 01:41:00,
2013-01-15 19:46:00,24.8,13.2,30.18,South,186,8.1,12.0,61,0.00,CLR,,0.00,0.0,WeatherDisplay:10.37,2013-01-16 01:46:00,
2013-01-15 19:51:00,24.7,13.1,30.18,SSW,201,6.4,10.4,61,0.00,CLR,,0.00,0.0,WeatherDisplay:10.37,2013-01-16 01:51:00,
2013-01-15 19:56:00,24.7,13.1,30.18,South,182,5.3,6.0,61,0.00,CLR,,0.00,0.0,WeatherDisplay:10.37,2013-01-16 01:56:00,
2013-01-15 20:01:00,24.4,13.2,30.16,South,180,5.2,10.4,62,0.00,CLR,,0.00,0.0,WeatherDisplay:10.37,2013-01-16 02:01:00,
2013-01-15 20:06:00,24.4,13.2,30.16,South,187,5.5,7.2,62,0.00,CLR,,0.00,0.0,WeatherDisplay:10.37,2013-01-16 02:06:00,
2013-01-15 20:11:00,24.4,13.2,30.16,SSW,205,6.2,9.6,62,0.00,CLR,,0.00,0.0,WeatherDisplay:10.37,2013-01-16 02:11:00,
2013-01-15 20:16:00,24.2,13.0,30.16,South,184,5.7,7.2,62,0.00,CLR,,0.00,0.0,WeatherDisplay:10.37,2013-01-16 02:16:00,
2013-01-15 20:21:00,24.2,13.0,30.16,SSW,201,5.1,7.2,62,0.00,CLR,,0.00,0.0,WeatherDisplay:10.37,2013-01-16 02:21:00,
2013-01-15 20:26:00,24.1,13.3,30.16,SSW,192,5.8,8.4,63,0.00,CLR,,0.00,0.0,WeatherDisplay:10.37,2013-01-16 02:26:00,
2013-01-15 20:31:00,23.9,13.1,30.15,SSW,201,7.1,9.6,63,0.00,CLR,,0.00,0.0,WeatherDisplay:10.37,2013-01-16 02:31:00,
2013-01-15 20:36:00,23.9,13.1,30.15,South,190,3.7,4.8,63,0.00,CLR,,0.00,0.0,WeatherDisplay:10.37,2013-01-16 02:36:00,
2013-01-15 20:41:00,23.9,13.1,30.15,SSW,199,4.2,8.1,63,0.00,CLR,,0.00,0.0,WeatherDisplay:10.37,2013-01-16 02:41:00,
2013-01-15 20:46:00,23.9,13.1,30.15,SSW,198,6.5,8.4,63,0.00,CLR,,0.00,0.0,WeatherDisplay:10.37,2013-01-16 02:46:00,
2013-01-15 20:51:00,23.8,13.0,30.15,South,184,6.5,9.6,63,0.00,CLR,,0.00,0.0,WeatherDisplay:10.37,2013-01-16 02:51:00,
2013-01-15 20:56:00,23.8,13.0,30.15,SW,217,5.3,9.6,63,0.00,CLR,,0.00,0.0,WeatherDisplay:10.37,2013-01-16 02:56:00,
2013-01-15 21:01:00,23.8,13.0,30.14,South,188,6.8,9.6,63,0.00,CLR,,0.00,0.0,WeatherDisplay:10.37,2013-01-16 03:01:00,
2013-01-15 21:06:00,23.8,13.0,30.14,SW,223,10.0,10.8,63,0.00,CLR,,0.00,0.0,WeatherDisplay:10.37,2013-01-16 03:06:00,
2013-01-15 21:11:00,23.8,13.0,30.14,SW,217,10.4,13.2,63,0.00,CLR,,0.00,0.0,WeatherDisplay:10.37,2013-01-16 03:11:00,
2013-01-15 21:16:00,23.6,12.8,30.13,South,188,8.5,12.0,63,0.00,CLR,,0.00,0.0,WeatherDisplay:10.37,2013-01-16 03:16:00,
2013-01-15 21:21:00,23.6,12.8,30.13,SSW,208,9.1,12.7,63,0.00,CLR,,0.00,0.0,WeatherDisplay:10.37,2013-01-16 03:21:00,
2013-01-15 21:26:00,23.6,12.8,30.13,SSW,209,9.8,12.0,63,0.00,CLR,,0.00,0.0,WeatherDisplay:10.37,2013-01-16 03:26:00,
2013-01-15 21:31:00,23.6,13.2,30.13,SSW,210,8.8,10.8,64,0.00,CLR,,0.00,0.0,WeatherDisplay:10.37,2013-01-16 03:31:00,
2013-01-15 21:36:00,23.6,13.2,30.13,South,187,11.5,15.0,64,0.00,CLR,,0.00,0.0,WeatherDisplay:10.37,2013-01-16 03:36:00,
2013-01-15 21:41:00,23.5,13.1,30.13,SSW,208,11.9,16.1,64,0.00,CLR,,0.00,0.0,WeatherDisplay:10.37,2013-01-16 03:41:00,
2013-01-15 21:46:00,23.3,12.9,30.12,SW,215,10.1,12.0,64,0.00,CLR,,0.00,0.0,WeatherDisplay:10.37,2013-01-16 03:46:00,
2013-01-15 21:51:00,23.3,12.9,30.12,SSW,213,10.0,11.5,64,0.00,CLR,,0.00,0.0,WeatherDisplay:10.37,2013-01-16 03:51:00,
2013-01-15 21:56:00,23.2,13.2,30.12,South,182,8.3,9.6,65,0.00,CLR,,0.00,0.0,WeatherDisplay:10.37,2013-01-16 03:56:00,
2013-01-15 22:01:00,23.0,13.0,30.11,SSW,194,7.9,12.7,65,0.00,CLR,,0.00,0.0,WeatherDisplay:10.37,2013-01-16 04:01:00,
2013-01-15 22:06:00,23.0,13.0,30.11,SSW,205,12.6,18.4,65,0.00,CLR,,0.00,0.0,WeatherDisplay:10.37,2013-01-16 04:06:00,
2013-01-15 22:11:00,23.0,13.0,30.11,SSW,195,10.3,13.2,65,0.00,CLR,,0.00,0.0,WeatherDisplay:10.37,2013-01-16 04:11:00,
2013-01-15 22:16:00,23.0,13.0,30.10,SSW,200,9.9,12.0,65,0.00,CLR,,0.00,0.0,WeatherDisplay:10.37,2013-01-16 04:16:00,
2013-01-15 22:21:00,22.9,12.9,30.10,SSW,210,11.1,13.2,65,0.00,CLR,,0.00,0.0,WeatherDisplay:10.37,2013-01-16 04:21:00,
2013-01-15 22:26:00,22.7,12.7,30.10,SW,215,9.7,12.7,65,0.00,CLR,,0.00,0.0,WeatherDisplay:10.37,2013-01-16 04:26:00,
2013-01-15 22:31:00,22.7,12.7,30.10,South,187,7.9,8.4,65,0.00,CLR,,0.00,0.0,WeatherDisplay:10.37,2013-01-16 04:31:00,
2013-01-15 22:36:00,22.7,12.7,30.10,SSW,192,6.6,12.0,65,0.00,CLR,,0.00,0.0,WeatherDisplay:10.37,2013-01-16 04:36:00,
2013-01-15 22:41:00,22.5,12.5,30.10,SSW,196,8.9,10.8,65,0.00,CLR,,0.00,0.0,WeatherDisplay:10.37,2013-01-16 04:41:00,
2013-01-15 22:46:00,22.5,12.5,30.08,South,183,7.6,11.5,65,0.00,CLR,,0.00,0.0,WeatherDisplay:10.37,2013-01-16 04:46:00,
2013-01-15 22:51:00,22.5,12.5,30.08,South,188,4.9,12.7,65,0.00,CLR,,0.00,0.0,WeatherDisplay:10.37,2013-01-16 04:51:00,
2013-01-15 22:56:00,22.4,12.4,30.08,SSW,203,5.8,8.4,65,0.00,CLR,,0.00,0.0,WeatherDisplay:10.37,2013-01-16 04:56:00,
2013-01-15 23:00:00,22.5,12.5,30.08,SSW,199,10.1,13.2,65,0.00,CLR,,0.00,0.0,WeatherDisplay:10.37,2013-01-16 05:00:00,
2013-01-15 23:01:00,22.5,12.5,30.08,SSW,202,7.5,8.4,65,0.00,CLR,,0.00,0.0,WeatherDisplay:10.37,2013-01-16 05:01:00,
2013-01-15 23:02:00,22.5,12.5,30.08,SSW,202,7.5,8.4,65,0.00,CLR,,0.00,0.0,WeatherDisplay:10.37,2013-01-16 05:02:00,
2013-01-15 23:03:00,22.4,12.4,30.08,SSW,202,3.9,8.4,65,0.00,CLR,,0.00,0.0,WeatherDisplay:10.37,2013-01-16 05:03:00,
2013-01-15 23:08:00,22.4,12.8,30.08,South,190,4.7,7.2,66,0.00,CLR,,0.00,0.0,WeatherDisplay:10.37,2013-01-16 05:08:00,
2013-01-15 23:13:00,22.2,12.2,30.08,SW,219,6.2,7.2,65,0.00,CLR,,0.00,0.0,WeatherDisplay:10.37,2013-01-16 05:13:00,
2013-01-15 23:18:00,22.2,12.2,30.07,SW,215,7.5,12.0,65,0.00,CLR,,0.00,0.0,WeatherDisplay:10.37,2013-01-16 05:18:00,
2013-01-15 23:23:00,22.2,12.6,30.07,SSW,207,8.8,12.0,66,0.00,CLR,,0.00,0.0,WeatherDisplay:10.37,2013-01-16 05:23:00,
2013-01-15 23:28:00,22.1,12.5,30.07,SSW,202,7.8,11.5,66,0.00,CLR,,0.00,0.0,WeatherDisplay:10.37,2013-01-16 05:28:00,
2013-01-15 23:33:00,21.9,12.3,30.06,South,175,7.1,8.4,66,0.00,CLR,,0.00,0.0,WeatherDisplay:10.37,2013-01-16 05:33:00,
2013-01-15 23:38:00,21.9,12.3,30.06,SSW,197,5.2,8.1,66,0.00,CLR,,0.00,0.0,WeatherDisplay:10.37,2013-01-16 05:38:00,
2013-01-15 23:43:00,21.9,12.3,30.06,SSW,213,7.5,9.6,66,0.00,CLR,,0.00,0.0,WeatherDisplay:10.37,2013-01-16 05:43:00,
2013-01-15 23:48:00,21.9,12.3,30.05,SSW,202,6.9,9.6,66,0.00,CLR,,0.00,0.0,WeatherDisplay:10.37,2013-01-16 05:48:00,
2013-01-15 23:53:00,21.9,12.3,30.05,South,180,7.6,10.8,66,0.00,CLR,,0.00,0.0,WeatherDisplay:10.37,2013-01-16 05:53:00,
2013-01-15 23:58:00,21.9,12.3,30.05,SSW,205,5.8,8.4,66,0.00,CLR,,0.00,0.0,WeatherDisplay:10.37,2013-01-16 05:58:00,